Atlantic City, NJ

4:11 PM EDT on May 23, 2017 (GMT -0400)
Atlantic City International

Weather History for KACY - April, 2014

Change the Weather History Date:

Monday, April 14, 2014

  Actual Average Record
Temperature  
Mean Temperature 64 °F 51 °F  
Max Temperature 73 °F 61 °F 90 °F (1941)
Min Temperature 55 °F 41 °F 22 °F (1975)
Degree Days  
Heating Degree Days 1 14  
Month to date heating degree days 185 224  
Since 1 July heating degree days 4907 4521  
Cooling Degree Days 0 0  
Month to date cooling degree days 0 0  
Year to date cooling degree days 0 0  
Growing Degree Days 14 (Base 50)    
Moisture  
Dew Point 55 °F    
Average Humidity 75    
Maximum Humidity 93    
Minimum Humidity 57    
Precipitation  
Precipitation 0.00 in 0.13 in 2.26 in (1909)
Month to date precipitation 0.31 1.86  
Year to date precipitation 13.86 12.16  
Snow  
Snow 0.00 in 0.00 in T in (1950)
Month to date snowfall 0.0 0.2  
Since 1 July snowfall 43.8 16.4  
Snow Depth 0.00 in    
Sea Level Pressure  
Sea Level Pressure 29.99 in    
Wind  
Wind Speed 17 mph (South)    
Max Wind Speed 29 mph    
Max Gust Speed 39 mph    
Visibility 10 miles    
Events      
T = Trace of Precipitation, MM = Missing Value Source: NWS Daily Summary

Daily Weather History Graph

Daily Weather History Graph

Search for Another Location

Airport or City:

Trip Planner

Search our weather history database for the weather conditions in past years. The results will help you decide how hot, cold, wet, or windy it might be!

Date:

Astronomy

Apr. 14, 2014 Rise Set
Actual Time 6:22 AM EDT 7:35 PM EDT
Civil Twilight 5:54 AM EDT 8:02 PM EDT
Nautical Twilight 5:21 AM EDT 8:36 PM EDT
Astronomical Twilight 4:47 AM EDT 9:10 PM EDT
Moon 7:11 PM EDT (4/14) 5:53 AM EDT (4/14)
Length of Visible Light 14h 07m
Length of Day
13h 12m
Full, 100% of the Moon is Illuminated
Apr 14
Full
Apr 15
Full
Apr 22
Last Quarter
Apr 29
New
May 6
First Quarter

Hourly Weather History & Observations

Time (EDT) Temp. Dew Point Humidity Pressure Visibility Wind Dir Wind Speed Gust Speed Precip Events Conditions
12:54 AM 60.1 °F 54.0 °F 80% 30.07 in 10.0 mi SSW 16.1 mph 23.0 mph N/A   Clear
1:54 AM 59.0 °F 54.0 °F 83% 30.06 in 10.0 mi South 12.7 mph - N/A   Clear
2:54 AM 57.0 °F 53.1 °F 87% 30.05 in 10.0 mi South 13.8 mph - N/A   Clear
3:54 AM 55.9 °F 53.1 °F 90% 30.05 in 10.0 mi South 11.5 mph - N/A   Clear
4:54 AM 55.9 °F 53.1 °F 90% 30.04 in 10.0 mi South 11.5 mph - N/A   Clear
5:54 AM 55.9 °F 53.1 °F 90% 30.04 in 10.0 mi South 11.5 mph - N/A   Clear
6:37 AM 55.0 °F 53.1 °F 93% 30.04 in 8.0 mi South 10.4 mph - N/A   Partly Cloudy
6:54 AM 55.9 °F 54.0 °F 93% 30.04 in 8.0 mi South 12.7 mph - N/A   Partly Cloudy
7:54 AM 57.0 °F 55.0 °F 93% 30.05 in 10.0 mi South 13.8 mph - N/A   Clear
8:54 AM 62.1 °F 55.9 °F 80% 30.06 in 10.0 mi SSW 15.0 mph 23.0 mph N/A   Clear
9:54 AM 66.9 °F 57.0 °F 70% 30.05 in 10.0 mi South 18.4 mph 23.0 mph N/A   Clear
10:54 AM 71.1 °F 57.0 °F 61% 30.04 in 10.0 mi SSW 16.1 mph 25.3 mph N/A   Clear
11:54 AM 70.0 °F 55.9 °F 61% 30.03 in 10.0 mi South 19.6 mph 26.5 mph N/A   Clear
12:54 PM 72.0 °F 55.0 °F 55% 30.01 in 10.0 mi South 20.7 mph 31.1 mph N/A   Clear
1:54 PM 72.0 °F 55.0 °F 55% 30.00 in 10.0 mi SSW 19.6 mph 32.2 mph N/A   Clear
2:54 PM 70.0 °F 53.1 °F 55% 29.97 in 10.0 mi South 21.9 mph 33.4 mph N/A   Clear
3:54 PM 68.0 °F 53.1 °F 59% 29.95 in 10.0 mi SSW 18.4 mph 31.1 mph N/A   Clear
4:54 PM 66.0 °F 51.1 °F 59% 29.94 in 10.0 mi South 20.7 mph 34.5 mph N/A   Clear
5:54 PM 66.0 °F 54.0 °F 65% 29.93 in 10.0 mi South 21.9 mph 28.8 mph N/A   Clear
6:54 PM 63.0 °F 54.0 °F 72% 29.93 in 10.0 mi SSW 19.6 mph 28.8 mph N/A   Clear
7:54 PM 60.1 °F 55.0 °F 83% 29.93 in 10.0 mi South 18.4 mph 25.3 mph N/A   Clear
8:54 PM 61.0 °F 57.0 °F 87% 29.93 in 10.0 mi South 16.1 mph 26.5 mph N/A   Scattered Clouds
9:54 PM 61.0 °F 57.9 °F 90% 29.92 in 10.0 mi SSW 15.0 mph 27.6 mph N/A   Scattered Clouds
10:05 PM 60.1 °F 57.9 °F 93% 29.91 in 10.0 mi South 19.6 mph 29.9 mph N/A   Mostly Cloudy
10:54 PM 59.0 °F 57.0 °F 93% 29.90 in 10.0 mi South 18.4 mph 33.4 mph N/A   Mostly Cloudy
11:51 PM 60.8 °F 57.2 °F 88% 29.88 in 10.0 mi South 23.0 mph 39.1 mph N/A   Scattered Clouds
11:54 PM 60.1 °F 57.0 °F 90% 29.88 in 10.0 mi South 19.6 mph 33.4 mph N/A   Scattered Clouds